Погода в Новобачатах

Россия / Кемеровская область (Кузбасс)     54°15′13″N   86°20′40″E
темп.,
°C
ветер,
м/с
пор.,
м/с
влажн.,
%
обл.,
%
осадки,
мм/ч
давл.,
гПа
погр.,
м
4 декабря, сб
сб401:000зюз71492100 0.8 1016844
04:00−1зюз7138215 0.3 1020715
07:00−3юз7158368 0.3 1022621
10:00−4юз71684100 0.0 1024767
13:00−3юз81585100 0.1 1024966
16:00−3зюз71486100 0.2 1025935
19:00−5зюз7148594 0.3 1028626
22:00−6зюз6128766 0.0 1031420
5 декабря, вс
вс501:00−8юз498933 0.0 1033193
04:00−11ююз249539 0.0 103364
07:00−11ююв2395100 0.0 103355
10:00−9ююв389489 0.0 1031174
13:00−4ююз3109166 0.0 1028409
16:00−4ююз388824 0.0 1026253
19:00−5ююз4119094 0.0 1026381
22:00−4ююз4991100 0.0 1025347
6 декабря, пн
пн601:00−4ююз4992100 0.0 1024252
04:00−3ююз41091100 0.0 1023252
07:00−3ююз41090100 0.0 1022243
10:00−3ююз3989100 0.0 1022229
13:00−2ю4985100 0.0 1021320
16:00−2ю3785100 0.0 1020225
19:00−2ю51379100 0.0 1019363
22:00−3ююз41288100 0.0 1018454
7 декабря, вт
вт701:00−2юз51388100 0.1 1017534
04:00−1юз51593100 0.6 1016904
07:00−1юз71591100 1.1 1015814
10:00−1юз71390100 0.4 1017837
13:00−2зюз61290100 0.7 1019931
16:00−3з5108897 0.1 1021656
19:00−6зсз4894100 0.4 1026371
22:00−12зсз2297100 0.4 103043
8 декабря, ср
ср801:00−17юз1199100 0.5 10339
04:00−21ююз2210095 0.1 103511
07:00−23ююз2210017 0.1 103710
10:00−24ююз2210013 0.0 103812
13:00−16зюз13875 0.0 1037174
16:00−17зюз00935 0.0 10379
19:00−23юз22965 0.0 104010
22:00−22юз229299 0.0 104250